This is the latest recevied weather packets stored in our database for station/object K5VP. If no packets are shown the sender has not sent any weather packets the latest 10 day(s).
| Time | Temp. | Humidity | Pressure | Rain* | Wind** | Luminosity | Snow |
|---|---|---|---|---|---|---|---|
| 1777229813 | 27.22° C | 45% | 1013.6 hPa | 0 mm | - | - | - |
| 1777229426 | 27.22° C | 46% | 1013.7 hPa | 0 mm | - | - | - |
| 1777229030 | 27.22° C | 49% | 1013.7 hPa | 0 mm | - | - | - |
| 1777228641 | 27.78° C | 45% | 1013.8 hPa | 0 mm | - | - | - |
| 1777228268 | 27.22° C | 45% | 1013.9 hPa | 0 mm | - | - | - |
| 1777227900 | 26.67° C | 46% | 1013.9 hPa | 0 mm | - | - | - |
| 1777227504 | 26.67° C | 49% | 1014.1 hPa | 0 mm | - | - | - |
| 1777227136 | 26.67° C | 47% | 1014 hPa | 0 mm | - | - | - |
| 1777226754 | 26.67° C | 49% | 1014.1 hPa | 0 mm | - | - | - |
| 1777226357 | 26.11° C | 47% | 1014.2 hPa | 0 mm | - | - | - |
| 1777225972 | 26.11° C | 46% | 1014.3 hPa | 0 mm | - | - | - |
| 1777225589 | 26.67° C | 48% | 1014.5 hPa | 0 mm | - | - | - |
| 1777225207 | 26.67° C | 47% | 1014.4 hPa | 0 mm | - | - | - |
| 1777224814 | 26.11° C | 47% | 1014.6 hPa | 0 mm | - | - | - |
| 1777224443 | 26.11° C | 50% | 1014.5 hPa | 0 mm | - | - | - |
| 1777224048 | 26.11° C | 47% | 1014.6 hPa | 0 mm | - | - | - |
| 1777223653 | 26.67° C | 47% | 1014.6 hPa | 0 mm | - | - | - |
| 1777223276 | 26.11° C | 47% | 1014.7 hPa | 0 mm | - | - | - |
| 1777222889 | 25.56° C | 48% | 1014.7 hPa | 0 mm | - | - | - |
| 1777222494 | 26.11° C | 48% | 1014.6 hPa | 0 mm | - | - | - |
| 1777222101 | 26.11° C | 50% | 1014.6 hPa | 0 mm | - | - | - |
| 1777221716 | 26.11° C | 51% | 1014.6 hPa | 0 mm | - | - | - |
| 1777221346 | 26.11° C | 51% | 1014.7 hPa | 0 mm | - | - | - |
| 1777220953 | 26.11° C | 49% | 1014.6 hPa | 0 mm | - | - | - |
| 1777220560 | 25.56° C | 56% | 1014.7 hPa | 0 mm | - | - | - |
* Rain latest hour (hover to see other rain measurements)
** Current wind speed in m/s (hover to see current wind gust speed)